Weather in Arendal

Norway     58°27′41″N   8°45′48″E
temp.,
°C
wind,
m/s
gust,
m/s
humid.,
%
clouds,
%
prec.,
mm/h
press.,
hPa
HPBL,
m
21 june, mon
mon2123:00+14nne3698100 0.6 1001441
02:00+14sw2497100 1.1 100399
05:00+12sw37945 0.0 1003192
08:00+16nw3579100 0.0 1003363
11:00+21ene125414 0.0 10041145
14:00+20se1161100 0.0 1005430
17:00+17e4669100 0.0 1006389
20:00+14ne4681100 0.0 1007431
22 june, tue
tue2223:00+12nne3594100 0.0 1008201
02:00+12nne2389100 0.0 100896
05:00+12ne128679 0.0 100960
08:00+14nw128098 0.1 1011215
11:00+15nne268698 0.1 1013373
14:00+15ne2575100 0.2 1015480
17:00+15wnw017696 0.0 1016221
20:00+16ssw117024 0.0 1017252
23 june, wed
wed2323:00+14wsw228194 0.0 101724
02:00+12wsw229513 0.0 101823
05:00+11w22944 0.0 101826
08:00+17sw23670 0.0 1018407
11:00+20ssw45540 0.0 10191024
14:00+20s55525 0.0 1019761
17:00+19s46432 0.0 1019463
20:00+17s23565 0.0 1018220
24 june, thu
thu2423:00+11ssw00883 0.0 101913
02:00+11ne22803 0.0 101931
05:00+10nne35890 0.0 1018106
08:00+15ne35632 0.0 1018386
11:00+19ene445147 0.0 1018656
14:00+20ene3353100 0.0 1018756
17:00+19ese32566 0.0 1017632
20:00+18sse22660 0.0 1017287
25 june, fri
fri2523:00+12nnw01920 0.0 101716
02:00+11n229522 0.0 101635
05:00+11nne239534 0.0 101755
08:00+16ne33705 0.0 1017372
11:00+19e33606 0.0 1017645
14:00+20ese33579 0.0 1017709
17:00+19sse33624 0.0 1017485
20:00+18s22686 0.0 1016221